Regional Weather Roundup
Issued by NWS

Home | Current Version | Previous Version | Text Only | Print | Product List | Glossary On
Versions: 1 2 3 4 5 6 7 8 9 10 11 12 13 14 15 16 17 18 19 20 21 22 23 24 25 26 27 28 29 30 31 32 33 34 35 36 37 38 39 40 41 42 43 44 45 46 47 48 49 50
000
ASUS43 KFSD 251510
RWRSD

WEATHER ROUNDUP FOR SOUTH DAKOTA
NATIONAL WEATHER SERVICE SIOUX FALLS SD
1000 AM CDT SAT OCT 25 2014

NOTE: "FAIR" INDICATES FEW OR NO CLOUDS BELOW 12,000 FEET WITH NO
SIGNIFICANT WEATHER AND/OR OBSTRUCTIONS TO VISIBILITY.


SDZ001>005-009-010-012>017-251600-
NORTHWEST AND NORTH CENTRAL SOUTH DAKOTA

CITY           SKY/WX    TMP DP  RH WIND       PRES   REMARKS
BUFFALO          N/A     46  32  58 E3        30.08S
FAITH            N/A     53  34  48 SE6       30.16S
MOBRIDGE       SUNNY     51  38  60 NW3       30.15R
$$

SDZ012>016-024>037-041>051-057-063-072>074-251600-
SOUTHWEST AND SOUTH CENTRAL SOUTH DAKOTA

CITY           SKY/WX    TMP DP  RH WIND       PRES   REMARKS
RAPID CTY ARPT SUNNY     48  34  58 S5        30.17S
PIERRE         SUNNY     49  37  63 CALM      30.16R
CUSTER         SUNNY     44  32  62 N3        30.21S
ELLSWORTH AFB  SUNNY     48  35  60 S6        30.16S
PHILIP         SUNNY     42  34  73 W5        30.18R
PINE RIDGE     SUNNY     38  33  82 CALM      30.20R
SPEARFISH      FAIR      48  36  61 CALM      30.14F
WINNER         FAIR      49  36  61 W5        30.18R
$$

SDZ004>011-016>023-039-040-251600-
NORTHEAST SOUTH DAKOTA

CITY           SKY/WX    TMP DP  RH WIND       PRES   REMARKS
ABERDEEN       MOSUNNY   53  36  52 NW5       30.16R
WATERTOWN      SUNNY     51  36  56 NW8       30.14R
SISSETON         N/A     55  33  43 N13       30.11S
$$

SDZ017-020-022-023-036>040-048>070-251600-
SOUTHEAST SOUTH DAKOTA

CITY           SKY/WX    TMP DP  RH WIND       PRES   REMARKS
SIOUX FALLS    MOSUNNY   56  44  64 CALM      30.14R
HURON          SUNNY     53  37  54 N7        30.16R
CHAMBERLAIN    SUNNY     52  38  58 CALM      30.17R
MITCHELL       SUNNY     51  40  65 NW3       30.17R
YANKTON        SUNNY     52  43  71 NW7       30.15R
$$

ABBREVIATIONS USED IN REMARKS
   TC - TEMPERATURE IN CELSIUS
  WCI - WIND CHILL INDEX
   HX - HEAT INDEX
  VSB - VISIBILITY




USA.gov is the U.S. government's official web portal to all federal, state and local government web resources and services.